Weather History for Rochelle, IL

Change the Weather History Date:

Sunday, August 4, 2013

  Actual Average (KRFD) Record (KRFD)
Temperature  
Mean Temperature 64 °F 73 °F  
Max Temperature 78 °F 83 °F 99 °F (1947)
Min Temperature 50 °F 62 °F 46 °F (1912)
Degree Days  
Heating Degree Days 2 0  
Month to date heating degree days 0  
Since 1 June heating degree days 34  
Since 1 July heating degree days 3  
Cooling Degree Days 0 8  
Month to date cooling degree days 32  
Year to date cooling degree days 536  
Since 1 June cooling degree days 481  
Growing Degree Days 14 (Base 50)    
Moisture  
Dew Point 53 °F    
Average Humidity 69    
Maximum Humidity 95    
Minimum Humidity 36    
Precipitation  
Precipitation 0.00 in 0.15 in 1.78 in (1919)
Month to date precipitation 0.59  
Year to date precipitation 21.66  
Snow  
Snow 0.00 in 0.00 in 0.00 in ()
Month to date snowfall 0.0  
Since 1 June snowfall 0.0  
Since 1 July snowfall 0.0  
Snow Depth -    
Sea Level Pressure  
Sea Level Pressure 30.17 in    
Wind  
Wind Speed 1 mph (ENE)    
Max Wind Speed 8 mph    
Max Gust Speed -    
Visibility 10 miles    
Events      
T = Trace of Precipitation, MM = Missing Value Source: NWS Daily Summary

Daily Weather History Graph

Daily Weather History Graph

Search for Another Location

Airport:

Trip Planner

Search our weather history database for the weather conditions in past years. The results will help you decide how hot, cold, wet, or windy it might be!

Date:

Astronomy

Aug. 04, 2013 Rise Set
Actual Time 5:53 AM CDT 8:10 PM CDT
Civil Twilight 5:22 AM CDT 8:41 PM CDT
Nautical Twilight 4:43 AM CDT 9:20 PM CDT
Astronomical Twilight 4:01 AM CDT 10:02 PM CDT
Moon 3:53 AM CDT (8/4) 6:33 PM CDT (8/4)
Length of Visible Light 15h 19m
Length of Day
14h 17m
Waning Crescent, 4% of the Moon is Illuminated
Aug 4
Waning Crescent
Aug 6
New
Aug 14
First Quarter
Aug 20
Full
Aug 28
Last Quarter

Hourly Weather History & Observations

Time (CDT) Temp. Dew Point Humidity Pressure Visibility Wind Dir Wind Speed Gust Speed Precip Events Conditions
12:15 AM 58.3 °F 55.8 °F 91% 30.15 in 10.0 mi Calm Calm - N/A   Clear
12:35 AM 58.6 °F 54.7 °F 87% 30.16 in 10.0 mi Calm Calm - N/A   Clear
12:55 AM 55.9 °F 53.6 °F 92% 30.16 in 10.0 mi Calm Calm - N/A   Clear
1:15 AM 56.3 °F 53.8 °F 91% 30.16 in 10.0 mi Calm Calm - N/A   Mostly Cloudy
1:35 AM 56.7 °F 54.0 °F 91% 30.16 in 10.0 mi Calm Calm - N/A   Mostly Cloudy
1:55 AM 56.3 °F 53.6 °F 91% 30.17 in 10.0 mi Calm Calm - N/A   Scattered Clouds
2:15 AM 54.1 °F 51.8 °F 92% 30.17 in 10.0 mi Calm Calm - N/A   Clear
2:35 AM 54.1 °F 52.3 °F 94% 30.17 in 10.0 mi Calm Calm - N/A   Clear
2:55 AM 54.1 °F 52.0 °F 92% 30.17 in 10.0 mi Calm Calm - N/A   Clear
3:15 AM 52.2 °F 50.5 °F 94% 30.17 in 10.0 mi Calm Calm - N/A   Clear
3:35 AM 51.6 °F 50.0 °F 94% 30.17 in 10.0 mi Calm Calm - N/A   Clear
3:55 AM 51.8 °F 50.4 °F 95% 30.17 in 10.0 mi Calm Calm - N/A   Clear
4:15 AM 51.1 °F 49.6 °F 95% 30.16 in 10.0 mi Calm Calm - N/A   Clear
4:35 AM 50.7 °F 49.3 °F 95% 30.16 in 10.0 mi Calm Calm - N/A   Clear
4:55 AM 50.0 °F 48.6 °F 95% 30.17 in 10.0 mi Calm Calm - N/A   Clear
5:15 AM 50.2 °F 48.9 °F 95% 30.17 in 10.0 mi Calm Calm - N/A   Clear
5:35 AM 51.8 °F 50.2 °F 94% 30.18 in 10.0 mi Calm Calm - N/A   Clear
5:55 AM 51.6 °F 49.6 °F 93% 30.18 in 10.0 mi Calm Calm - N/A   Clear
6:15 AM 51.6 °F 49.6 °F 93% 30.19 in 10.0 mi Calm Calm - N/A   Clear
6:35 AM 50.5 °F 48.9 °F 94% 30.18 in 10.0 mi Calm Calm - N/A   Clear
6:55 AM 53.2 °F 51.3 °F 93% 30.18 in 10.0 mi Calm Calm - N/A   Clear
7:15 AM 56.3 °F 53.4 °F 90% 30.20 in 10.0 mi Calm Calm - N/A   Clear
7:35 AM 56.8 °F 54.5 °F 92% 30.20 in 10.0 mi Calm Calm - N/A   Clear
7:55 AM 60.4 °F 55.9 °F 85% 30.21 in 10.0 mi Calm Calm - N/A   Clear
8:15 AM 62.8 °F 55.2 °F 76% 30.22 in 10.0 mi Calm Calm - N/A   Clear
8:35 AM 63.9 °F 57.2 °F 79% 30.22 in 10.0 mi NE 5.8 mph - N/A   Clear
8:55 AM 64.4 °F 57.7 °F 79% 30.22 in 10.0 mi NE 6.9 mph - N/A   Clear
9:15 AM 66.2 °F 58.3 °F 76% 30.22 in 10.0 mi ENE 5.8 mph - N/A   Clear
9:35 AM 68.4 °F 59.5 °F 73% 30.22 in 10.0 mi NE 5.8 mph - N/A   Clear
9:55 AM 69.8 °F 59.0 °F 68% 30.22 in 10.0 mi East 5.8 mph - N/A   Clear
10:15 AM 71.4 °F 57.9 °F 62% 30.22 in 10.0 mi ENE 5.8 mph - N/A   Clear
10:35 AM 71.8 °F 57.0 °F 60% 30.21 in 10.0 mi NE 4.6 mph - N/A   Clear
10:55 AM 73.0 °F 54.0 °F 51% 30.21 in 10.0 mi NE 4.6 mph - N/A   Clear
11:15 AM 73.8 °F 53.1 °F 48% 30.21 in 10.0 mi NNE 4.6 mph - N/A   Clear
11:35 AM 72.9 °F 53.2 °F 50% 30.21 in 10.0 mi NNE 8.1 mph - N/A   Scattered Clouds
11:55 AM 75.0 °F 51.1 °F 43% 30.21 in 10.0 mi North 5.8 mph - N/A   Scattered Clouds
12:15 PM 75.4 °F 52.5 °F 45% 30.20 in 10.0 mi East 6.9 mph - N/A   Scattered Clouds
12:35 PM 75.2 °F 48.4 °F 39% 30.19 in 10.0 mi ENE 4.6 mph - N/A   Mostly Cloudy
12:55 PM 75.4 °F 48.0 °F 38% 30.19 in 10.0 mi NNW 3.5 mph - N/A   Scattered Clouds
1:15 PM 76.3 °F 47.8 °F 37% 30.18 in 10.0 mi ENE 3.5 mph - N/A   Scattered Clouds
1:35 PM 76.3 °F 50.0 °F 40% 30.17 in 10.0 mi East 5.8 mph - N/A   Scattered Clouds
1:55 PM 75.2 °F 48.7 °F 39% 30.17 in 10.0 mi Calm Calm - N/A   Scattered Clouds
2:15 PM 77.4 °F 49.3 °F 37% 30.17 in 10.0 mi NE 6.9 mph - N/A   Mostly Cloudy
2:35 PM 76.6 °F 49.6 °F 39% 30.16 in 10.0 mi Calm Calm - N/A   Mostly Cloudy
2:55 PM 77.2 °F 48.2 °F 36% 30.16 in 10.0 mi Calm Calm - N/A   Mostly Cloudy
3:15 PM 76.6 °F 48.7 °F 37% 30.16 in 10.0 mi Calm Calm - N/A   Overcast
3:35 PM 75.7 °F 49.5 °F 40% 30.16 in 10.0 mi Calm Calm - N/A   Overcast
3:55 PM 77.5 °F 50.4 °F 38% 30.17 in 10.0 mi Calm Calm - N/A   Mostly Cloudy
4:15 PM 76.6 °F 49.3 °F 38% 30.16 in 10.0 mi Calm Calm - N/A   Mostly Cloudy
4:35 PM 76.1 °F 48.7 °F 38% 30.16 in 10.0 mi Calm Calm - N/A   Mostly Cloudy
4:55 PM 76.6 °F 52.0 °F 42% 30.16 in 10.0 mi Calm Calm - N/A   Mostly Cloudy
5:15 PM 75.7 °F 51.8 °F 43% 30.14 in 10.0 mi Calm Calm - N/A   Scattered Clouds
5:35 PM 75.2 °F 51.6 °F 44% 30.14 in 10.0 mi Calm Calm - N/A   Clear
5:55 PM 74.3 °F 53.6 °F 48% 30.13 in 10.0 mi Calm Calm - N/A   Clear
6:15 PM 75.4 °F 53.6 °F 47% 30.13 in 10.0 mi Calm Calm - N/A   Clear
6:35 PM 72.7 °F 54.9 °F 53% 30.13 in 10.0 mi Calm Calm - N/A   Clear
6:55 PM 72.5 °F 57.2 °F 59% 30.13 in 10.0 mi Calm Calm - N/A   Clear
7:15 PM 72.5 °F 57.6 °F 59% 30.13 in 10.0 mi Calm Calm - N/A   Clear
7:35 PM 71.2 °F 55.2 °F 57% 30.13 in 10.0 mi ENE 5.8 mph - N/A   Clear
7:55 PM 69.8 °F 56.1 °F 62% 30.13 in 10.0 mi ENE 5.8 mph - N/A   Clear
8:15 PM 69.4 °F 56.8 °F 64% 30.13 in 10.0 mi East 5.8 mph - N/A   Clear
8:35 PM 66.9 °F 58.3 °F 74% 30.12 in 10.0 mi East 4.6 mph - N/A   Clear
8:55 PM 66.4 °F 57.6 °F 73% 30.13 in 10.0 mi ESE 6.9 mph - N/A   Clear
9:15 PM 66.2 °F 57.2 °F 73% 30.13 in 10.0 mi ESE 4.6 mph - N/A   Clear
9:35 PM 65.8 °F 56.8 °F 73% 30.13 in 10.0 mi ESE 5.8 mph - N/A   Clear
9:55 PM 65.3 °F 57.2 °F 75% 30.13 in 10.0 mi SE 4.6 mph - N/A   Clear
10:15 PM 64.8 °F 57.2 °F 76% 30.13 in 10.0 mi SE 4.6 mph - N/A   Clear
10:35 PM 64.2 °F 57.4 °F 78% 30.14 in 10.0 mi SE 4.6 mph - N/A   Clear
10:55 PM 63.1 °F 57.7 °F 83% 30.14 in 10.0 mi SE 3.5 mph - N/A   Clear
11:15 PM 62.1 °F 57.6 °F 85% 30.14 in 10.0 mi SE 3.5 mph - N/A   Clear
11:35 PM 61.3 °F 56.5 °F 84% 30.14 in 10.0 mi SE 4.6 mph - N/A   Scattered Clouds
11:55 PM 60.8 °F 56.3 °F 85% 30.13 in 10.0 mi ESE 3.5 mph - N/A   Scattered Clouds